Dewpoint
32 30 29 31 29 22 20 20 23 26 24 27 29 23 24 28 39 45 49 53 55 56 57 60 60 60 61 65 66 70 68 73 73 72 71 71 70 70 70 71 71 70 72 72
31 28 30 29 20 18 20 19 24 26 26 23 23 24 26 33 34 40 46 52 53 54 57 59 59 62 62 64 67 72 72 72 72 72 72 72 72 72 72 71 71 70 71 72
29 30 27 25 23 20 22 30 23 28 27 23 22 37 42 44 45 45 36 50 52 53 56 58 61 61 63 67 68 72 71 70 70 68 68 72 73 72 72 72 72 71 71 73
29 29 28 25 20 21 32 21 21 22 20 21 24 36 46 47 47 46 44 42 50 52 61 62 64 63 63 67 70 74 73 70 69 70 68 71 71 69 71 71 72 72 73 72
27 27 25 29 22 21 24 23 24 26 22 21 25 39 42 48 40 42 49 45 47 61 63 63 61 55 60 65 70 73 74 74 72 71 71 73 72 71 70 71 72 73 72 73
25 26 24 23 22 21 23 21 22 22 24 24 31 37 36 47 48 44 44 49 53 57 61 60 59 57 58 62 68 73 75 74 74 74 73 74 73 72 72 70 71 72 72 72
23 21 22 19 19 20 22 22 20 27 32 30 35 38 38 44 47 45 46 50 50 54 57 59 61 63 60 62 67 72 74 75 75 75 75 74 74 73 72 71 71 71 71 71
20 17 17 17 17 18 20 31 20 28 30 31 38 41 42 45 46 47 48 56 63 63 62 61 64 63 62 63 67 70 73 73 75 75 75 75 75 75 73 73 72 70 71 72
15 18 15 15 18 19 19 18 20 24 29 33 39 43 43 48 49 48 51 62 61 59 62 62 65 65 67 67 69 70 72 74 75 74 74 75 76 75 74 73 72 72 64 70
14 17 23 21 23 21 32 25 22 27 30 39 42 45 48 48 49 50 60 62 62 61 56 55 65 66 67 69 69 71 74 74 74 74 74 74 74 75 75 74 73 72 68 68
41 24 26 26 24 22 22 23 28 28 31 35 39 43 51 49 41 46 58 58 54 52 47 55 62 65 66 68 68 69 71 72 72 72 72 73 74 74 75 74 74 73 73 73
31 14 24 23 31 34 33 33 30 31 31 36 38 41 47 47 47 47 56 58 59 50 54 61 65 60 61 67 69 68 69 69 69 69 70 73 73 72 72 73 73 73 73 71
30 31 23 24 31 31 33 34 36 33 21 25 33 39 42 42 38 42 44 56 60 61 64 65 65 59 63 63 65 64 66 66 68 70 70 71 71 72 72 72 72 72 71 70
38 25 26 25 31 35 35 35 38 35 33 32 33 36 38 42 43 45 44 42 48 61 64 65 65 61 58 57 64 61 61 61 65 70 71 71 70 70 70 71 72 72 72 70
29 27 30 30 36 41 41 38 38 38 33 30 33 40 43 44 45 47 47 47 50 56 59 61 63 61 58 61 61 59 60 61 62 64 67 68 69 69 70 71 71 71 71 73
33 32 36 36 32 40 38 38 38 39 37 29 40 41 44 46 47 50 49 48 47 53 54 55 57 58 57 59 58 59 59 59 61 61 63 65 66 67 68 68 68 71 70 67
36 33 35 34 34 32 30 32 32 32 31 28 32 43 47 48 48 48 49 50 51 50 52 53 54 54 54 53 58 61 61 60 60 61 61 63 64 65 65 66 67 68 69 68
32 38 37 34 33 28 34 35 33 40 40 41 40 43 45 44 44 49 50 49 50 51 52 52 53 53 53 51 52 58 56 58 60 61 61 62 64 63 64 65 65 65 67 68
36 37 34 31 31 31 36 37 35 40 41 42 43 43 43 44 46 45 45 45 45 45 47 48 48 49 51 53 53 54 56 58 59 61 63 64 64 63 65 65 65 65 65 66
34 38 35 32 31 30 41 39 39 39 43 44 43 43 42 44 41 43 42 43 45 45 46 46 47 48 49 51 53 54 55 58 59 60 60 63 64 64 64 63 64 65 66 66
36 40 36 37 33 40 43 42 43 39 44 43 42 42 42 41 43 43 45 45 47 47 47 48 49 50 51 52 55 55 57 58 60 62 62 62 62 63 64 64 65 64 63 62
35 37 38 41 42 40 43 42 43 44 43 43 45 43 44 44 44 46 49 52 52 53 53 54 53 53 54 55 56 56 58 61 60 61 63 64 64 63 60 61 62 63 63 63
40 44 43 39 43 46 42 43 44 45 46 45 45 44 47 49 49 50 51 52 53 53 54 54 54 54 54 56 58 58 58 60 61 61 61 60 61 62 63 62 60 61 61 62
46 45 42 41 45 45 46 47 47 45 44 44 49 50 50 49 49 52 53 54 54 54 55 56 56 56 56 56 57 59 59 59 60 60 60 61 61 58 62 62 61 59 58 58
46 45 42 46 48 48 48 47 46 46 49 50 51 50 50 52 53 53 52 53 53 53 54 54 54 55 56 57 57 59 58 61 61 61 61 61 60 58 58 59 58 58 58 58
44 45 44 46 47 47 47 47 50 52 51 51 50 52 53 53 53 53 53 53 54 54 55 54 55 56 55 56 57 58 59 59 59 59 60 61 61 61 61 60 58 54 52 51
Lifted_Index
3 2 1 0 -0 -0 -0 -1 -1 -0 0 1 1 1 0 -1 -1 -2 -4 -4 -4 -4 -4 -4 -4 -4 -4 -5 -5 -5 -5 -6 -6 -5 -5 -4 -4 -3 -3 -3 -3 -3 -2 -2
2 2 1 0 0 0 -0 -1 -1 -0 0 1 1 0 -0 -0 -1 -1 -3 -4 -4 -4 -4 -4 -4 -4 -5 -5 -6 -6 -6 -6 -5 -5 -5 -5 -4 -4 -3 -3 -3 -3 -2 -2
1 1 0 0 0 0 0 -0 -0 0 1 1 0 -0 -0 0 0 0 -1 -3 -4 -4 -4 -4 -4 -4 -5 -5 -6 -7 -6 -6 -5 -5 -5 -5 -5 -4 -4 -4 -4 -3 -3 -3
1 -0 -0 0 1 1 0 0 0 1 1 0 -0 -1 -0 0 1 1 0 -1 -3 -4 -4 -3 -3 -4 -4 -5 -7 -8 -7 -6 -6 -5 -5 -5 -5 -5 -4 -4 -4 -4 -4 -4
0 -0 -0 0 1 1 1 1 1 1 1 0 -1 -1 -0 1 1 1 1 -1 -2 -3 -3 -2 -2 -2 -4 -5 -7 -8 -8 -7 -7 -6 -6 -5 -5 -5 -5 -4 -4 -5 -5 -4
1 0 0 1 2 2 1 1 1 1 0 -0 -1 -1 -0 1 1 1 0 -1 -2 -2 -2 -2 -1 -1 -3 -5 -6 -8 -9 -9 -8 -8 -7 -7 -6 -6 -5 -5 -5 -5 -5 -5
1 1 1 1 2 2 2 1 0 -0 -0 -0 -0 -0 -0 0 0 0 -1 -2 -3 -3 -3 -3 -2 -2 -3 -4 -6 -8 -9 -10 -9 -9 -8 -8 -7 -6 -6 -5 -5 -5 -5 -5
0 0 1 1 2 2 2 1 -0 -1 -1 -1 -0 -0 -0 -0 -0 -1 -2 -3 -4 -4 -4 -5 -5 -4 -4 -5 -6 -7 -9 -9 -10 -10 -9 -9 -8 -8 -7 -6 -5 -5 -5 -4
-0 -0 -0 1 1 2 1 1 -0 -1 -1 -1 -0 0 -0 -0 -0 -1 -3 -4 -4 -3 -4 -6 -6 -6 -5 -5 -6 -7 -7 -7 -8 -9 -9 -9 -9 -9 -8 -7 -6 -5 -5 -4
-0 -1 -1 -0 1 1 1 0 -0 -1 -1 -1 -0 0 0 0 0 -2 -4 -5 -4 -3 -3 -4 -5 -5 -5 -5 -6 -6 -7 -6 -7 -8 -8 -9 -9 -9 -9 -8 -7 -6 -6 -5
0 -0 -0 -0 0 0 0 0 -0 -0 -1 -1 -0 -0 0 0 0 -2 -4 -5 -4 -3 -3 -3 -4 -4 -4 -4 -5 -6 -6 -6 -7 -7 -8 -8 -9 -9 -9 -9 -8 -7 -7 -6
1 1 -0 -0 -0 -0 -0 -0 -0 -0 -0 -1 -1 -1 -0 0 -0 -2 -4 -4 -4 -3 -2 -2 -2 -3 -3 -3 -3 -4 -5 -5 -6 -6 -7 -8 -9 -9 -9 -8 -8 -8 -7 -7
1 1 0 -0 -0 -0 -0 -0 -0 -0 -0 -1 -1 -1 -1 -0 -0 -1 -2 -3 -3 -3 -2 -2 -2 -2 -2 -1 -2 -3 -3 -4 -5 -6 -7 -7 -8 -8 -8 -8 -8 -8 -7 -7
1 1 1 0 -0 -0 -0 -0 0 -0 -0 -0 -1 -1 -0 0 0 0 0 -0 -1 -2 -3 -2 -2 -1 -1 -1 -2 -2 -2 -2 -3 -5 -6 -6 -7 -7 -7 -7 -7 -7 -7 -7
1 1 1 1 -0 -1 -0 0 -0 -0 0 0 -0 -1 -0 1 1 1 2 1 -0 -2 -2 -2 -1 -1 -1 -1 -1 -1 -1 -1 -2 -3 -4 -5 -5 -6 -6 -6 -6 -7 -7 -7
1 1 1 0 0 -0 0 0 0 -0 0 0 -0 -1 0 1 1 1 1 1 0 -1 -1 -1 -1 -1 -1 -1 -1 -1 -0 -1 -1 -2 -3 -3 -4 -4 -5 -5 -6 -6 -6 -6
1 1 1 1 1 0 0 0 0 0 0 0 -0 -0 0 1 1 1 1 1 1 1 0 0 -0 -0 -0 -0 -0 -1 -0 -0 -1 -2 -2 -2 -3 -3 -4 -4 -4 -5 -5 -5
1 1 1 2 1 1 1 1 0 0 0 0 0 0 1 1 1 1 1 2 2 2 2 1 1 1 1 1 0 -0 -0 -0 -1 -2 -2 -2 -3 -3 -3 -3 -4 -4 -4 -5
2 2 2 2 2 1 1 1 1 1 1 1 1 1 1 2 2 2 2 3 3 3 3 3 3 2 2 2 1 0 0 -0 -1 -1 -2 -2 -3 -3 -3 -3 -3 -3 -4 -4
2 2 2 2 2 1 1 1 1 1 1 1 2 2 2 3 3 3 4 4 4 4 4 3 3 3 2 2 1 1 0 -0 -1 -1 -2 -2 -2 -3 -3 -3 -3 -3 -3 -3
1 1 1 1 1 1 1 2 1 1 2 2 3 3 4 4 4 4 4 4 4 3 3 3 2 2 2 1 1 1 0 -1 -1 -1 -1 -2 -2 -2 -2 -3 -3 -3 -3 -3
1 1 1 1 1 1 2 2 2 2 3 3 4 4 5 5 5 4 4 3 3 2 2 2 2 1 1 1 1 0 -0 -1 -1 -1 -1 -2 -2 -2 -2 -2 -2 -2 -2 -2
1 1 1 1 1 2 3 3 3 3 4 4 4 4 4 4 4 3 3 3 3 2 2 2 1 1 1 1 1 0 -0 -1 -1 -1 -1 -1 -1 -1 -1 -1 -1 -1 -1 -1
1 2 2 2 2 3 3 4 4 4 4 4 4 4 4 4 3 3 3 3 3 3 2 2 2 2 1 1 1 0 -0 -0 -1 -1 -1 -1 -0 -0 -1 -1 -0 -0 -0 -1
2 2 2 2 2 3 3 3 4 4 3 3 3 3 3 3 3 3 3 4 4 3 3 3 3 2 2 2 1 1 0 0 0 -0 -0 -0 -0 -0 -0 -0 -0 -0 -0 -0
2 2 2 2 2 3 3 3 3 3 3 3 3 3 3 4 4 4 4 4 4 3 3 3 3 2 2 2 1 1 1 1 1 0 -0 -0 -1 -0 -0 -0 -0 -0 0 0